Location: Sungai Bunut
(2.6333°N, 113.7333°E)
Time: 02:09:43
(UTC+00:00)

S-56A Canister/Altair - Pass Details

Date: 09 December 2023
Orbit: 640 x 2488 km, 38.9° (Epoch: 24 February)

Event Time Altitude Azimuth Distance (km) Brightness Sun altitude
Rises 09:44:13 0° 325° (NW) 3,405 11.0 6.6°
Reaches altitude 10° 09:46:29 10° 332° (NNW) 2,639 10.4 6.1°
Maximum altitude 09:52:34 46° 45° (NE) 1,572 8.8 4.7°
Drops below altitude 10° 10:01:36 10° 115° (ESE) 3,897 10.7 2.6°
Sets 10:05:39 0° 120° (ESE) 5,195 11.4 1.6°
